Weather History for Cotulla, TX

Change the Weather History Date:

Wednesday, January 22, 2014

  Actual Average Record
Temperature  
Mean Temperature 52 °F -  
Max Temperature 73 °F 66 °F 82 °F (2009)
Min Temperature 30 °F 44 °F 27 °F (2011)
Degree Days  
Heating Degree Days 14    
Growing Degree Days 2 (Base 50)    
Moisture  
Dew Point 23 °F    
Average Humidity 36    
Maximum Humidity 72    
Minimum Humidity 12    
Precipitation  
Precipitation 0.00 in - - ()
Sea Level Pressure  
Sea Level Pressure 30.08 in    
Wind  
Wind Speed 4 mph (SE)    
Max Wind Speed 12 mph    
Max Gust Speed 17 mph    
Visibility 10 miles    
Events      
Averages and records for this station are not official NWS values.
T = Trace of Precipitation, MM = Missing Value Source: NWS Daily Summary

Daily Weather History Graph

Daily Weather History Graph

Search for Another Location

Airport:

Trip Planner

Search our weather history database for the weather conditions in past years. The results will help you decide how hot, cold, wet, or windy it might be!

Date:

Astronomy

Jan. 22, 2014 Rise Set
Actual Time 7:28 AM CST 6:08 PM CST
Civil Twilight 7:03 AM CST 6:33 PM CST
Nautical Twilight 6:35 AM CST 7:02 PM CST
Astronomical Twilight 6:06 AM CST 7:30 PM CST
Moon No Moon Rise 11:04 AM CST (1/22)
Length of Visible Light 11h 29m
Length of Day
10h 39m
Waning Gibbous, 65% of the Moon is Illuminated
Jan 22
Waning Gibbous
Jan 23
Last Quarter
Jan 30
New
Feb 6
First Quarter
Feb 14
Full

Hourly Weather History & Observations

Time (CST) Temp. Windchill Dew Point Humidity Pressure Visibility Wind Dir Wind Speed Gust Speed Precip Events Conditions
12:53 AM 41.0 °F - 23.0 °F 49% 30.22 in 10.0 mi Calm Calm - N/A   Clear
1:53 AM 39.9 °F - 21.9 °F 49% 30.21 in 10.0 mi Calm Calm - N/A   Clear
2:53 AM 37.0 °F - 23.0 °F 57% 30.20 in 10.0 mi Calm Calm - N/A   Clear
3:53 AM 36.0 °F - 23.0 °F 59% 30.19 in 10.0 mi Calm Calm - N/A   Clear
4:53 AM 34.0 °F - 21.9 °F 61% 30.18 in 10.0 mi Calm Calm - N/A   Clear
5:53 AM 30.9 °F - 23.0 °F 72% 30.17 in 10.0 mi Calm Calm - N/A   Clear
7:53 AM 35.1 °F 32.2 °F 21.0 °F 57% 30.19 in 10.0 mi ESE 3.5 mph - N/A   Clear
8:53 AM 44.1 °F - 24.1 °F 45% 30.19 in 10.0 mi Calm Calm - N/A   Clear
9:53 AM 53.1 °F - 25.0 °F 34% 30.19 in 10.0 mi South 5.8 mph - N/A   Clear
10:53 AM 63.0 °F - 23.0 °F 22% 30.18 in 10.0 mi South 10.4 mph - N/A   Clear
11:53 AM 66.9 °F - 23.0 °F 19% 30.14 in 10.0 mi SSW 6.9 mph - N/A   Clear
12:53 PM 69.1 °F - 21.0 °F 16% 30.08 in 10.0 mi South 10.4 mph 16.1 mph N/A   Clear
1:53 PM 72.0 °F - 21.0 °F 15% 30.03 in 10.0 mi South 11.5 mph 16.1 mph N/A   Clear
2:53 PM 72.0 °F - 19.9 °F 14% 29.99 in 10.0 mi SE 9.2 mph 16.1 mph N/A   Clear
3:53 PM 72.0 °F - 19.0 °F 13% 29.98 in 10.0 mi SE 10.4 mph - N/A   Clear
4:53 PM 73.0 °F - 18.0 °F 12% 29.96 in 10.0 mi SSE 10.4 mph 17.3 mph N/A   Clear
5:53 PM 68.0 °F - 19.0 °F 15% 29.96 in 10.0 mi SE 8.1 mph - N/A   Clear
6:53 PM 61.0 °F - 19.9 °F 21% 29.96 in 10.0 mi SE 6.9 mph - N/A   Clear
7:53 PM 57.0 °F - 19.9 °F 24% 29.98 in 10.0 mi ESE 5.8 mph - N/A   Clear
8:53 PM 55.0 °F - 21.9 °F 28% 29.98 in 10.0 mi SE 6.9 mph - N/A   Clear
9:53 PM 55.0 °F - 26.1 °F 33% 29.99 in 10.0 mi ESE 8.1 mph - N/A   Clear
10:53 PM 53.1 °F - 39.0 °F 59% 29.99 in 10.0 mi ESE 8.1 mph - N/A   Clear
11:53 PM 53.1 °F - 41.0 °F 64% 29.99 in 10.0 mi East 5.8 mph - N/A   Clear